When you browse on this site, cookies collect data to enhance your experience and personalize the content and advertising you see.
Visit our Privacy Policy to learn more. By continuing to use the site, you agree to this use of cookies and data.
  • In Hungary
  • List of Countries
  • For 7 days
  • Water Temperature
  • Satellite Maps
  • Weather Map
  • News
  • Weather Widgets
  • user-avatar
    Login

    Hourly Weather Managua

    Today, 16 January, Wednesday

    Time Temperature Precipitation Wind Pressure Humidity
    00:00 +26°C° 0 mm 6 mps 755 mmHg 74%
    01:00 +26°C° 0 mm 5 mps 755 mmHg 74%
    02:00 +26°C° 0 mm 5 mps 755 mmHg 73%
    03:00 +25°C° 0 mm 5 mps 755 mmHg 73%
    04:00 +25°C° 0 mm 5 mps 755 mmHg 72%
    05:00 +25°C° 0 mm 5 mps 755 mmHg 72%
    06:00 +25°C° 0 mm 4 mps 756 mmHg 71%
    07:00 +26°C° 0 mm 5 mps 756 mmHg 63%
    08:00 +28°C° 0 mm 6 mps 756 mmHg 54%
    09:00 +30°C° 0 mm 6 mps 757 mmHg 45%
    10:00 +33°C° 0 mm 6 mps 756 mmHg 41%
    11:00 +34°C° 0 mm 7 mps 756 mmHg 37%
    12:00 +36°C° 0 mm 7 mps 755 mmHg 33%
    13:00 +36°C° 0 mm 7 mps 754 mmHg 33%
    14:00 +36°C° 0 mm 7 mps 754 mmHg 34%
    15:00 +36°C° 0 mm 7 mps 753 mmHg 34%
    16:00 +35°C° 0 mm 7 mps 753 mmHg 39%
    17:00 +33°C° 0 mm 6 mps 753 mmHg 44%
    18:00 +32°C° 0 mm 6 mps 753 mmHg 49%
    19:00 +30°C° 0 mm 6 mps 754 mmHg 55%
    20:00 +29°C° 0 mm 6 mps 754 mmHg 60%
    21:00 +28°C° 0 mm 6 mps 755 mmHg 65%
    22:00 +28°C° 0 mm 6 mps 755 mmHg 68%
    23:00 +27°C° 0 mm 6 mps 755 mmHg 70%

    Tomorrow, 17 January, Thursday

    Time Temperature Precipitation Wind Pressure Humidity
    00:00 +27°C° 0 mm 6 mps 755 mmHg 72%
    01:00 +26°C° 0 mm 6 mps 755 mmHg 74%
    02:00 +26°C° 0 mm 5 mps 755 mmHg 75%
    03:00 +26°C° 0 mm 5 mps 755 mmHg 77%
    04:00 +25°C° 0 mm 5 mps 755 mmHg 77%
    05:00 +25°C° 0 mm 5 mps 755 mmHg 77%
    06:00 +25°C° 0 mm 5 mps 755 mmHg 77%
    07:00 +27°C° 0 mm 6 mps 756 mmHg 70%
    08:00 +28°C° 0 mm 6 mps 756 mmHg 63%
    09:00 +30°C° 0 mm 7 mps 756 mmHg 55%
    10:00 +33°C° 0 mm 7 mps 756 mmHg 50%
    11:00 +34°C° 0 mm 7 mps 755 mmHg 45%
    12:00 +36°C° 0 mm 7 mps 755 mmHg 40%
    13:00 +36°C° 0 mm 7 mps 754 mmHg 41%
    14:00 +36°C° 0 mm 7 mps 753 mmHg 41%
    15:00 +36°C° 0 mm 7 mps 752 mmHg 42%
    16:00 +34°C° 0 mm 7 mps 752 mmHg 47%
    17:00 +33°C° 0 mm 7 mps 753 mmHg 52%
    18:00 +30°C° 0 mm 6 mps 753 mmHg 57%
    19:00 +29°C° 0 mm 6 mps 754 mmHg 62%
    20:00 +28°C° 0 mm 6 mps 754 mmHg 66%
    21:00 +28°C° 0 mm 6 mps 755 mmHg 71%
    22:00 +27°C° 0 mm 6 mps 755 mmHg 73%
    23:00 +27°C° 0 mm 5 mps 755 mmHg 75%

    Day after tomorrow, 18 January, Friday

    Time Temperature Precipitation Wind Pressure Humidity
    00:00 +26°C° 0 mm 5 mps 755 mmHg 78%
    01:00 +26°C° 0 mm 5 mps 754 mmHg 78%
    02:00 +26°C° 0 mm 5 mps 754 mmHg 79%
    03:00 +26°C° 0 mm 5 mps 754 mmHg 79%
    04:00 +25°C° 0 mm 5 mps 754 mmHg 79%
    05:00 +25°C° 0 mm 4 mps 754 mmHg 79%
    06:00 +25°C° 0 mm 4 mps 754 mmHg 79%
    07:00 +27°C° 0 mm 5 mps 755 mmHg 71%
    08:00 +29°C° 0 mm 5 mps 755 mmHg 64%
    09:00 +30°C° 0 mm 6 mps 756 mmHg 56%
    10:00 +33°C° 0 mm 6 mps 755 mmHg 51%
    11:00 +34°C° 0 mm 7 mps 755 mmHg 45%
    12:00 +36°C° 0 mm 7 mps 754 mmHg 40%
    13:00 +36°C° 0 mm 7 mps 753 mmHg 40%
    14:00 +36°C° 0 mm 7 mps 752 mmHg 39%
    15:00 +36°C° 0 mm 7 mps 751 mmHg 39%
    16:00 +35°C° 0 mm 7 mps 751 mmHg 44%
    17:00 +33°C° 0 mm 6 mps 752 mmHg 49%
    18:00 +32°C° 0 mm 6 mps 752 mmHg 54%
    19:00 +30°C° 0 mm 6 mps 753 mmHg 59%
    20:00 +29°C° 0 mm 6 mps 753 mmHg 64%
    21:00 +28°C° 0 mm 6 mps 754 mmHg 69%
    22:00 +27°C° 0 mm 6 mps 754 mmHg 71%
    23:00 +27°C° 0 mm 6 mps 754 mmHg 73%

    19 January, Saturday

    Time Temperature Precipitation Wind Pressure Humidity
    00:00 +27°C° 0 mm 6 mps 754 mmHg 74%
    01:00 +26°C° 0 mm 6 mps 753 mmHg 76%
    02:00 +26°C° 0 mm 5 mps 753 mmHg 78%
    03:00 +25°C° 0 mm 5 mps 753 mmHg 80%
    04:00 +25°C° 0 mm 5 mps 753 mmHg 81%
    05:00 +25°C° 0 mm 5 mps 753 mmHg 81%
    06:00 +25°C° 0 mm 5 mps 754 mmHg 81%
    07:00 +27°C° 0 mm 5 mps 754 mmHg 73%
    08:00 +29°C° 0 mm 6 mps 754 mmHg 65%
    09:00 +30°C° 0 mm 7 mps 755 mmHg 58%
    10:00 +33°C° 0 mm 7 mps 754 mmHg 53%
    11:00 +34°C° 0 mm 7 mps 753 mmHg 49%
    12:00 +35°C° 0 mm 7 mps 753 mmHg 45%
    13:00 +35°C° 0 mm 7 mps 752 mmHg 45%
    14:00 +36°C° 0 mm 7 mps 751 mmHg 45%
    15:00 +36°C° 0 mm 7 mps 750 mmHg 45%
    16:00 +34°C° 0 mm 6 mps 750 mmHg 50%
    17:00 +33°C° 0 mm 6 mps 751 mmHg 55%
    18:00 +32°C° 0 mm 5 mps 751 mmHg 61%
    19:00 +30°C° 0 mm 5 mps 752 mmHg 65%
    20:00 +29°C° 0 mm 5 mps 753 mmHg 69%
    21:00 +28°C° 0 mm 5 mps 753 mmHg 74%
    22:00 +27°C° 0 mm 5 mps 753 mmHg 76%
    23:00 +27°C° 0 mm 4 mps 753 mmHg 79%

    20 January, Sunday

    Time Temperature Precipitation Wind Pressure Humidity
    00:00 +26°C° 0 mm 4 mps 754 mmHg 81%
    01:00 +26°C° 0 mm 4 mps 753 mmHg 82%
    02:00 +25°C° 0 mm 4 mps 753 mmHg 83%
    03:00 +25°C° 0 mm 4 mps 753 mmHg 84%
    04:00 +25°C° 0 mm 3 mps 753 mmHg 84%
    05:00 +25°C° 0 mm 3 mps 754 mmHg 83%
    06:00 +25°C° 0 mm 3 mps 754 mmHg 82%
    07:00 +27°C° 0 mm 4 mps 755 mmHg 71%
    08:00 +29°C° 0 mm 4 mps 755 mmHg 59%
    09:00 +33°C° 0 mm 5 mps 756 mmHg 48%
    10:00 +34°C° 0 mm 5 mps 755 mmHg 43%
    11:00 +36°C° 0 mm 5 mps 754 mmHg 39%
    12:00 +37°C° 0 mm 5 mps 754 mmHg 34%
    13:00 +39°C° 0 mm 5 mps 753 mmHg 33%
    14:00 +39°C° 0 mm 5 mps 752 mmHg 33%
    15:00 +39°C° 0 mm 6 mps 751 mmHg 32%
    16:00 +37°C° 0 mm 5 mps 752 mmHg 37%
    17:00 +35°C° 0 mm 5 mps 752 mmHg 41%
    18:00 +34°C° 0 mm 5 mps 752 mmHg 46%
    19:00 +32°C° 0 mm 5 mps 753 mmHg 53%
    20:00 +30°C° 0 mm 5 mps 754 mmHg 60%
    21:00 +29°C° 0 mm 5 mps 754 mmHg 68%
    22:00 +28°C° 0 mm 5 mps 754 mmHg 70%
    23:00 +27°C° 0 mm 5 mps 754 mmHg 73%

    21 January, Monday

    Time Temperature Precipitation Wind Pressure Humidity
    00:00 +27°C° 0 mm 5 mps 754 mmHg 76%
    01:00 +26°C° 0 mm 5 mps 754 mmHg 76%
    02:00 +26°C° 0 mm 4 mps 754 mmHg 75%
    03:00 +26°C° 0 mm 4 mps 754 mmHg 75%
    04:00 +26°C° 0 mm 4 mps 754 mmHg 71%
    05:00 +26°C° 0 mm 4 mps 754 mmHg 68%
    06:00 +25°C° 0 mm 4 mps 755 mmHg 64%
    07:00 +27°C° 0 mm 5 mps 755 mmHg 57%
    08:00 +29°C° 0 mm 6 mps 756 mmHg 50%
    09:00 +32°C° 0 mm 7 mps 756 mmHg 43%
    10:00 +33°C° 0 mm 8 mps 755 mmHg 41%
    11:00 +34°C° 0 mm 8 mps 755 mmHg 38%
    12:00 +37°C° 0 mm 9 mps 754 mmHg 35%
    13:00 +35°C° 0 mm 9 mps 753 mmHg 36%
    14:00 +35°C° 0 mm 9 mps 753 mmHg 37%
    15:00 +35°C° 0 mm 9 mps 752 mmHg 38%
    16:00 +33°C° 0 mm 8 mps 752 mmHg 43%
    17:00 +32°C° 0 mm 7 mps 753 mmHg 47%
    18:00 +29°C° 0 mm 6 mps 753 mmHg 52%
    19:00 +28°C° 0 mm 7 mps 754 mmHg 54%
    20:00 +28°C° 0 mm 7 mps 754 mmHg 56%
    21:00 +27°C° 0 mm 7 mps 755 mmHg 58%
    22:00 +27°C° 0 mm 7 mps 755 mmHg 59%
    23:00 +27°C° 0 mm 6 mps 754 mmHg 59%
    Show more